Pagrindinis puslapis
METAR-TAF:

METAR-TAF

Oro uostai :

Bom Jesus da Lapa, Bahija, Brazilija

platuma: 13-16S, ilguma: 043-25W, Aukštis: 440 m

Dabartinis oras

Ataskaita buvo paskelbta 1 valandą ir 11 minutes, ne 05:00 UTC
Vėjas 4 kt iš Šiaurės Vakarų
Temperatūra 25°C
Drėgmė 89%
Slėgis 1013 hPa
Matomumas 10 km arba daugiau
nėra debesų žemiau 1500 m ir nėra kamuolinių lietaus debesų

METAR: SBLP 230500Z AUTO 32004KT CAVOK 25/23 Q1013

Laikas: 03:11 (06:11 UTC)


TAF: trūkstamas

Orai ataskaitas ir orų prognozės (METAR, TAF).

turimą stotys yra geltonos ir raudonos taškus žemėlapyje.

Perkelti pele per norėdami pamatyti stoties vardą.

Tada spustelėkite, norėdami matyti oro stebėjimo ir prognozės.

Norėdami pakeisti žemėlapį: spustelėkite ant žalios mygtukų su juodo kryžiaus žemyn,; žalią mygtuką su brūkšneliu, jei norite nutolinti; arba žalių rodyklių gretimoms žemėlapius.


METAR-TAF: